Wind_Speed
3 8 9 7 4 2 3 4 7 7 9 10 10 10 10 13 9 11 10 11 11 12 12 11 12 11 12 12 12 13 13 11 18 14 20 17 11 15 16 17 12 11 10
4 6 6 4 3 3 4 5 6 7 8 8 8 8 13 11 13 12 11 12 12 14 13 12 12 12 12 12 12 11 9 7 13 8 9 5 7 22 9 18 17 13 9
5 4 5 5 4 5 6 7 7 8 8 8 8 10 11 11 13 14 16 14 15 15 14 13 13 12 12 13 13 12 10 7 9 13 3 3 2 11 8 12 17 17 15
4 4 4 5 7 9 9 11 10 10 9 8 8 9 11 13 15 19 20 18 15 15 14 14 14 13 13 13 12 11 10 9 8 8 8 7 10 3 5 10 14 13 15
4 4 6 9 10 11 12 11 11 12 13 11 10 10 12 14 18 19 20 20 17 15 14 14 14 14 13 13 12 11 10 8 7 5 7 8 11 3 4 4 11 8 11
4 6 9 10 11 10 11 11 12 13 13 12 12 12 13 15 18 19 20 20 19 16 14 13 14 14 15 15 14 13 12 10 9 7 6 5 3 7 4 3 6 6 6
4 5 6 8 10 10 10 11 12 13 13 13 13 14 13 14 15 16 18 20 21 19 16 15 14 15 15 15 15 15 14 13 11 10 8 6 6 6 6 8 6 3 4
4 5 6 7 8 8 9 11 12 13 13 14 14 14 13 14 14 16 17 19 19 19 17 16 15 15 15 15 15 17 16 15 14 13 12 11 9 9 6 4 5 5 3
5 5 6 6 6 6 8 10 11 12 13 14 15 15 14 15 16 16 16 17 18 18 16 16 16 16 16 16 16 18 17 16 15 15 14 13 12 11 10 9 6 4 3
5 4 5 5 4 3 5 7 9 11 12 13 14 14 14 14 14 15 16 17 17 17 17 17 17 17 16 16 16 18 18 18 17 16 15 14 13 12 11 10 10 8 9
6 6 5 2 1 2 5 7 10 11 12 13 13 12 12 13 14 15 16 17 17 17 17 17 18 17 17 16 16 17 18 19 19 17 17 16 14 13 12 11 11 10 9
6 7 7 3 1 3 5 7 9 10 11 11 10 10 11 13 14 16 17 17 18 17 18 18 17 17 16 16 16 17 17 18 20 19 17 17 15 15 13 13 12 12 11
6 6 7 6 4 2 5 7 9 10 11 10 10 9 11 13 14 15 15 16 17 17 17 18 18 18 17 17 16 16 17 18 19 19 19 18 16 17 15 14 14 14 13
8 7 6 8 4 3 5 7 9 10 10 11 10 11 12 13 14 14 14 15 15 16 17 16 17 18 18 17 16 16 17 18 18 18 19 19 18 19 17 16 16 15 14
9 9 6 7 4 4 5 6 8 9 11 11 11 11 12 13 13 13 14 15 15 15 16 17 17 17 18 18 18 18 17 18 19 18 18 20 21 20 20 19 18 16 15
8 6 5 5 4 6 7 8 9 10 11 11 11 11 12 12 13 14 15 15 15 16 16 17 18 18 18 17 16 16 18 18 19 21 20 19 20 20 20 19 20 20 19
6 7 6 6 7 8 8 8 8 9 9 10 10 11 12 14 14 15 15 16 17 17 17 18 19 20 19 17 16 16 17 18 18 19 21 22 20 19 20 19 21 20 21
7 6 7 8 8 9 8 9 10 12 12 13 13 12 14 15 16 17 16 17 18 19 20 20 19 20 18 17 16 16 18 18 18 18 19 21 22 20 19 20 22 23 24
7 6 6 8 10 10 9 11 12 12 13 15 14 14 15 18 19 20 21 20 20 21 21 21 21 20 21 17 17 17 18 20 21 19 18 19 21 21 19 18 22 23 25
6 7 7 9 11 14 11 11 13 14 17 17 17 18 17 18 19 20 21 21 21 22 23 24 23 21 22 19 17 16 17 20 23 24 22 18 18 19 18 18 18 20 21
5 6 10 13 16 12 10 13 14 18 20 19 18 21 21 20 20 21 22 23 24 25 26 26 27 25 22 22 21 19 16 18 20 21 24 24 20 19 18 17 21 26 23
9 9 9 11 10 8 9 14 16 20 19 19 22 25 26 25 24 23 26 26 25 27 29 29 31 30 27 24 23 22 16 16 17 20 23 26 25 23 21 20 21 21 22
11 10 8 10 11 10 10 14 20 21 21 22 26 29 30 29 30 29 29 29 30 27 27 22 23 29 31 29 27 24 18 17 19 20 21 24 25 26 24 23 23 21 21
10 8 8 10 15 17 17 18 21 20 20 22 24 26 28 31 32 32 31 29 30 27 23 22 21 23 25 29 28 23 20 22 21 20 21 22 25 26 29 26 24 23 23
12 11 12 14 17 18 19 21 21 18 19 22 25 27 28 30 31 31 31 29 33 27 26 28 23 22 22 31 26 21 21 22 22 22 23 22 20 20 23 23 23 26 26
14 15 18 20 25 26 28 29 25 22 22 25 24 23 23 25 26 26 29 30 25 27 28 32 31 31 31 32 31 29 27 25 24 23 23 23 21 20 21 20 23 22 24
Wind_Direction
77 118 126 127 122 84 24 346 340 342 339 338 340 341 341 336 336 331 325 328 325 327 326 325 330 332 337 340 345 344 344 347 352 339 341 340 337 357 359 349 328 336 321
108 117 126 126 91 33 5 357 351 348 346 342 334 328 328 329 330 334 332 325 319 317 313 315 326 330 327 334 340 351 346 330 356 341 318 342 336 341 332 5 11 14 27
124 111 103 79 62 36 11 7 6 358 350 339 330 328 330 331 332 333 327 323 318 310 304 308 310 317 319 325 331 337 347 336 336 355 320 325 323 320 327 9 22 28 40
101 93 86 66 59 56 56 54 43 30 14 358 341 333 327 320 322 321 322 323 322 311 305 303 301 303 309 313 317 323 330 336 327 345 344 325 295 299 320 326 7 22 46
125 97 87 91 78 72 61 46 37 32 26 16 1 344 329 323 322 324 324 323 317 316 312 305 298 295 294 299 302 306 314 318 311 322 329 330 333 3 293 314 335 343 10
118 99 100 99 78 67 51 39 30 24 17 11 4 353 340 334 330 331 331 332 328 320 320 311 303 297 295 294 295 295 300 300 295 296 299 305 324 324 333 311 317 307 321
123 109 95 83 68 54 44 32 23 18 13 9 5 357 348 340 335 334 334 333 332 329 322 318 311 303 295 291 289 291 291 293 290 289 285 280 280 281 294 295 312 311 305
140 118 106 82 70 55 36 24 15 10 7 4 0 355 350 346 340 337 335 334 331 328 325 318 313 305 299 294 290 288 288 288 287 287 283 284 282 279 271 272 304 310 283
158 140 105 82 68 46 26 12 7 6 5 2 358 356 354 350 346 342 340 340 341 339 335 328 322 314 301 295 289 285 284 282 283 283 283 283 286 283 279 275 265 271 289
163 145 121 87 62 32 12 7 5 4 1 358 357 355 352 349 347 346 346 344 342 340 336 332 327 321 316 308 297 289 288 282 280 279 278 278 282 282 278 271 264 251 256
177 175 167 153 85 357 357 2 3 0 358 357 355 357 1 3 2 1 359 356 351 348 345 342 336 330 324 317 307 298 290 283 281 281 280 280 279 274 267 262 258 253 238
183 186 196 206 259 338 350 355 355 356 356 355 358 3 5 7 9 8 6 2 0 359 355 351 347 343 336 327 313 302 295 286 280 279 278 279 281 278 275 266 257 251 244
182 195 206 215 241 311 334 344 349 350 351 351 351 353 357 358 359 360 1 2 3 3 2 1 358 351 345 338 328 313 305 296 286 280 279 281 282 277 276 271 264 260 253
197 198 207 218 241 302 321 333 340 340 338 338 339 340 344 345 343 343 345 348 349 351 356 0 359 357 355 349 341 331 319 310 301 292 282 279 279 278 278 273 267 263 255
200 202 199 209 233 279 302 314 321 329 329 326 324 325 331 333 333 333 338 343 346 346 347 348 351 353 354 353 345 337 327 319 312 306 297 287 285 284 277 270 266 259 251
211 205 209 218 266 285 294 312 320 321 319 319 313 315 323 332 337 339 341 340 343 345 347 349 347 348 347 348 346 337 328 324 316 311 308 299 292 287 281 269 263 259 248
192 206 216 231 266 282 288 288 296 309 312 308 304 314 324 331 333 333 333 334 337 340 343 346 346 346 348 345 340 338 330 324 319 314 311 307 302 297 289 278 267 253 250
200 208 223 240 273 283 282 298 308 311 309 307 306 311 315 317 321 322 324 328 329 333 335 336 338 336 344 344 340 333 327 325 324 321 315 307 305 300 290 281 272 265 256
230 239 259 259 279 283 290 291 291 291 294 297 299 303 304 306 313 318 322 322 322 322 325 326 327 328 331 336 336 332 326 321 320 320 320 315 308 306 298 276 268 266 265
252 273 274 277 291 303 286 276 281 287 289 300 300 304 304 301 303 307 310 312 311 308 312 314 316 318 318 323 326 326 318 316 318 316 316 316 313 311 296 278 268 263 262
277 310 314 306 302 300 281 272 282 287 301 298 297 301 301 297 296 300 303 307 306 306 305 305 307 308 313 315 319 320 309 309 310 307 310 315 318 309 299 282 268 262 272
322 325 316 306 306 297 279 274 282 300 306 301 295 299 305 305 302 300 302 305 303 302 302 303 303 304 308 309 310 314 299 300 298 299 304 308 313 307 302 289 276 268 261
311 321 315 303 302 305 296 287 298 306 308 304 299 299 303 303 302 301 302 303 303 300 296 292 292 297 304 304 308 311 299 294 293 294 297 299 300 298 291 288 278 269 259
308 311 313 310 312 320 318 307 308 314 309 302 301 300 298 297 296 296 296 293 289 284 280 276 272 276 284 293 297 301 300 305 298 300 301 299 296 292 285 285 274 269 252
315 326 324 315 306 309 309 311 314 316 305 301 296 293 291 291 292 292 291 286 287 277 272 274 274 274 277 284 292 286 284 285 285 296 295 293 290 286 287 280 277 262 260
318 320 323 317 314 313 311 310 314 314 306 297 290 287 286 285 283 280 287 291 277 282 273 271 270 273 271 277 279 280 282 283 285 289 284 284 284 284 286 273 272 263 256
Height
822 822 823 824 826 827 827 827 826 825 824 823 821 819 819 818 817 816 814 813 812 811 809 808 805 803 802 800 798 796 793 789 785 779 772 766 764 763 759 753 749 745 742
823 823 824 825 825 826 826 826 825 824 823 822 821 820 818 817 816 815 814 812 810 810 808 806 804 802 800 799 798 795 793 790 787 784 779 770 766 762 758 755 750 746 743
823 824 825 825 826 826 826 825 824 824 822 821 820 819 818 816 815 814 813 811 808 807 806 804 802 800 799 798 796 795 793 791 787 785 784 779 776 768 760 757 753 748 747
823 824 825 826 826 826 826 825 825 824 822 820 819 818 817 815 814 813 810 808 806 805 803 801 799 798 797 796 795 794 792 791 789 785 784 782 780 774 765 759 755 753 750
824 825 826 826 827 827 827 827 826 824 822 820 819 817 816 815 812 810 807 805 803 801 799 797 796 795 794 793 792 791 790 789 788 787 784 780 777 774 772 763 759 756 754
825 827 827 828 828 828 828 827 826 824 823 821 819 817 815 813 811 808 805 802 799 797 796 794 792 791 791 790 789 789 787 786 785 784 783 782 780 776 776 770 763 759 756
827 828 829 828 828 828 828 828 826 824 822 820 818 816 814 812 809 807 804 800 797 794 793 791 790 788 788 787 786 785 784 783 782 781 780 779 778 777 775 773 767 762 756
827 828 829 829 829 829 829 828 826 824 822 820 818 815 813 811 808 805 802 799 796 792 790 788 786 785 784 783 782 781 780 780 779 778 777 776 774 773 772 771 769 762 758
827 828 829 829 829 829 829 827 826 824 822 819 816 814 811 809 807 804 801 797 794 790 787 785 783 782 781 780 778 777 776 775 774 774 773 772 771 770 769 768 768 767 760
828 829 829 829 829 829 828 826 824 822 819 817 814 812 810 807 805 801 798 795 792 789 786 783 781 779 777 776 775 773 772 771 770 769 768 767 767 766 766 765 764 764 764
826 827 827 828 828 828 826 824 822 820 817 815 813 811 809 806 803 800 797 794 790 787 784 781 778 776 774 772 770 768 767 766 766 765 764 764 763 761 760 760 760 760 760
823 824 825 826 826 825 824 821 820 818 816 814 812 809 807 804 802 799 796 793 790 786 783 779 776 773 770 768 766 764 762 761 760 760 760 759 759 758 758 756 755 755 755
820 822 823 824 823 821 820 819 817 816 814 812 810 808 805 803 800 798 796 793 789 786 783 779 775 772 769 766 763 760 758 756 755 755 755 755 755 753 753 752 752 751 750
816 817 819 819 818 817 817 816 815 814 812 810 808 806 804 802 799 797 795 792 789 786 782 778 774 770 766 763 760 757 755 753 752 751 750 750 749 748 748 748 747 747 747
811 812 813 815 814 814 814 814 812 811 809 807 806 804 802 800 797 795 792 789 786 783 780 776 772 769 765 761 758 755 752 750 747 746 746 745 744 743 742 741 740 741 742
808 810 812 812 812 812 812 811 810 809 807 805 804 802 800 797 795 792 789 786 783 780 776 773 769 766 763 759 756 753 750 747 744 742 740 739 738 737 737 736 735 735 734
808 809 809 809 810 809 808 808 807 806 804 803 802 800 797 795 792 789 786 783 780 777 773 770 766 762 759 756 753 750 747 744 741 738 736 733 732 731 731 731 730 730 730
804 805 806 806 807 807 806 805 804 803 802 801 800 798 795 792 789 787 784 780 777 774 771 767 764 760 757 753 750 746 743 740 738 735 733 730 727 726 724 723 723 723 723
805 805 805 805 804 803 802 802 802 802 800 799 797 794 792 789 786 782 779 776 773 769 766 763 760 757 753 750 746 743 739 735 732 730 728 726 723 721 719 717 715 715 714
804 803 803 801 800 799 800 800 799 799 797 795 793 790 788 785 782 779 775 772 769 766 762 758 756 753 749 746 743 739 736 731 727 724 722 720 718 715 715 714 712 709 708
802 802 802 801 799 797 798 797 797 795 793 791 789 785 782 780 777 774 771 767 763 760 756 753 749 746 743 739 737 735 732 728 724 720 716 714 713 710 708 707 706 702 704
802 799 797 797 796 794 795 795 792 790 789 786 783 779 776 773 770 767 764 761 759 755 751 746 742 738 735 733 730 728 726 724 721 716 712 709 707 705 703 700 698 696 696
800 797 797 796 795 792 790 789 786 785 784 781 777 774 771 767 764 761 759 756 752 748 744 741 736 731 728 725 723 721 719 717 714 711 708 704 700 698 696 693 691 690 690
796 797 796 793 792 790 787 784 780 778 776 774 771 767 765 760 757 754 752 749 745 741 737 733 728 723 720 717 714 712 710 708 706 703 699 697 695 692 689 686 684 682 681
795 794 794 790 787 785 782 779 775 773 769 767 765 762 757 755 750 748 744 741 736 734 729 724 722 718 713 708 707 706 703 701 699 698 693 690 686 683 681 679 677 674 672
792 790 788 785 781 778 775 771 769 766 762 758 754 751 748 744 740 736 730 728 725 722 721 717 715 710 706 702 700 698 695 693 692 690 686 681 679 676 673 670 669 667 665